Location: North Smoke Tower Site
(30.5430°N, 82.3390°W)
Time: 08:51:35
(UTC-04:00)

Cosmos 1980 Rocket - Visible Passes

Search period start: 19 October 2017 00:00
Search period end: 29 October 2017 00:00
Orbit: 829 x 850 km, 71.0° (Epoch: 18 October)

Date Brightness Start Highest point End Pass type
(mag) Time Alt. Az. Time Alt. Az. Time Alt. Az.
19 Oct 5.7 06:27:25 10° ESE 06:29:07 11° E 06:30:49 10° E visible
20 Oct 5.8 06:12:44 10° ESE 06:13:29 10° E 06:14:13 10° E visible
23 Oct 2.2 07:04:06 10° SSW 07:09:41 89° WNW 07:15:19 10° NNE visible
24 Oct 2.3 06:48:26 10° SSW 06:54:00 85° ESE 06:59:39 10° NNE visible
25 Oct 2.3 06:32:46 10° SSW 06:38:20 79° ESE 06:43:58 10° NNE visible
26 Oct 2.4 06:17:06 10° SSW 06:22:40 73° ESE 06:28:16 10° NNE visible
27 Oct 2.5 06:01:28 10° S 06:07:00 68° ESE 06:12:35 10° NNE visible
28 Oct 2.6 05:45:50 10° S 05:51:19 63° ESE 05:56:53 10° NNE visible
